GFSMW_925_temp_102.txt.gz
Temp
21 20 19 18 17 16 16 15 15 15 15 17 19 21 20 19 19 20 19 18 17 17 16 16 16 16 15 16 15 15 15 15 15 15 14 14 14 14 14 15 13 15 14
20 19 18 17 16 15 15 14 14 14 14 15 16 20 21 21 19 20 20 18 17 16 16 16 15 15 15 15 15 15 14 15 15 14 14 14 13 14 14 14 14 14 14
18 18 17 16 15 14 13 12 12 12 12 13 14 16 19 21 19 18 18 17 17 16 16 15 15 15 15 15 16 15 14 14 14 15 16 14 16 13 13 13 13 14 14
18 17 16 15 13 12 11 9 9 10 10 11 13 16 18 21 20 19 17 17 16 16 15 15 16 16 15 15 15 15 15 15 15 14 16 17 16 16 14 13 14 14 13
16 16 15 13 12 10 8 7 7 7 8 8 10 12 16 20 21 20 18 16 16 16 15 15 16 15 15 15 15 15 16 15 14 14 14 15 15 17 17 14 13 13 13
15 15 14 12 12 10 8 6 5 6 6 7 8 10 14 18 21 20 18 16 16 15 15 15 15 15 15 15 15 15 16 15 15 14 14 15 16 17 16 16 14 14 12
14 14 13 12 10 8 7 5 4 4 5 6 7 10 14 17 20 20 19 16 15 15 15 15 14 16 17 16 15 15 15 15 14 14 14 14 15 16 15 16 15 14 12
13 13 12 10 9 7 6 4 3 3 4 5 7 9 16 18 19 19 18 17 16 16 16 15 15 15 19 18 15 15 15 15 14 14 14 14 14 15 15 16 15 15 13
12 12 11 9 8 6 5 3 2 3 3 5 6 9 17 19 17 17 17 17 18 19 17 15 14 14 14 14 14 15 15 14 14 14 14 14 14 13 14 14 15 16 14
11 11 10 8 7 5 4 2 2 2 3 4 5 9 16 16 16 16 17 16 18 17 16 15 14 14 15 14 15 15 14 14 14 14 14 14 14 13 13 13 13 14 14
10 9 9 7 6 5 4 1 1 1 2 3 5 7 14 15 15 15 15 15 15 15 15 15 14 14 14 14 14 14 14 14 14 13 14 14 13 13 13 13 14 14 15
9 9 8 7 6 5 3 1 0 0 1 2 3 5 8 11 14 14 14 14 14 14 14 15 14 14 14 14 14 14 14 14 13 13 13 13 13 13 13 13 13 13 13
8 8 8 7 5 4 2 0 -0 -1 -0 0 2 3 3 5 9 13 14 14 14 14 13 13 15 15 14 14 13 14 14 13 13 13 13 13 13 13 13 13 12 12 12
7 6 6 6 4 3 2 -0 -1 -1 -0 -0 1 2 2 3 4 8 12 13 13 13 13 14 13 13 13 13 13 13 13 13 13 14 13 13 13 13 12 12 12 12 11
4 5 5 4 4 2 1 1 -1 -2 -1 -1 -0 0 1 2 2 6 7 10 13 13 12 12 12 12 12 12 12 12 12 12 12 12 12 12 12 12 12 12 12 11 11
3 4 4 3 2 1 -0 -0 -1 -2 -2 -2 -2 -1 -0 0 1 2 3 2 6 6 9 10 10 10 10 10 11 12 11 11 11 10 10 10 11 11 12 12 12 11 11
2 1 2 1 0 -1 -1 -1 -2 -2 -2 -3 -2 -2 -2 -1 -0 0 2 1 0 0 0 3 6 6 6 8 10 10 9 9 7 7 6 7 7 7 8 11 11 11 11
-0 -0 -1 -1 -1 -2 -2 -1 -1 -2 -2 -3 -3 -3 -3 -2 -2 -1 -1 0 0 -0 -0 -1 0 1 1 3 5 6 6 4 3 3 3 3 4 4 5 8 9 7 9
-1 -2 -2 -2 -2 -3 -2 -2 -2 -2 -2 -3 -3 -3 -4 -3 -3 -3 -2 -2 -2 -0 -3 -3 -2 -1 -1 0 2 3 2 0 -0 0 1 1 2 2 4 4 3 2 1
-2 -2 -3 -3 -3 -3 -3 -3 -3 -3 -4 -4 -4 -4 -3 -4 -3 -3 -3 -3 -4 -4 -3 -3 -4 -3 -3 -2 -0 -0 -1 -2 -3 -3 -2 -2 -1 0 1 2 -1 -3 -3
-2 -3 -3 -3 -3 -3 -3 -3 -4 -4 -5 -4 -4 -4 -4 -3 -3 -3 -3 -3 -3 -4 -4 -5 -5 -5 -4 -4 -3 -2 -3 -4 -4 -4 -4 -4 -3 -2 -2 -1 -2 -4 -4
-3 -3 -2 -2 -3 -3 -2 -3 -4 -4 -4 -5 -4 -4 -4 -4 -3 -3 -3 -3 -3 -3 -3 -4 -5 -5 -6 -6 -5 -5 -5 -5 -5 -5 -5 -5 -5 -6 -5 -5 -6 -5 -4
-2 -2 -2 -2 -3 -3 -3 -3 -2 -3 -3 -4 -4 -4 -4 -4 -4 -3 -3 -2 -2 -3 -3 -3 -3 -4 -5 -5 -6 -5 -5 -6 -7 -7 -7 -7 -7 -7 -7 -7 -6 -5 -6
-4 -3 -2 -3 -3 -3 -4 -3 -2 -1 -2 -2 -3 -3 -4 -4 -5 -4 -4 -4 -4 -3 -3 -3 -3 -4 -5 -5 -5 -5 -6 -6 -6 -6 -6 -6 -6 -6 -7 -6 -6 -7 -7
-5 -5 -5 -4 -4 -4 -4 -4 -3 -2 -1 -2 -3 -3 -3 -3 -4 -6 -6 -5 -6 -5 -4 -5 -5 -5 -6 -6 -6 -6 -6 -6 -6 -6 -6 -6 -6 -6 -7 -7 -7 -7 -7
-7 -7 -7 -7 -6 -6 -6 -6 -4 -4 -3 -3 -3 -4 -3 -3 -3 -3 -5 -8 -7 -7 -7 -7 -6 -7 -7 -7 -7 -7 -6 -7 -5 -5 -5 -6 -6 -6 -6 -7 -7 -7 -7

GFSMW_925_temp_105.txt.gz
Temp
24 23 21 20 20 19 18 18 17 17 17 18 19 20 21 23 23 22 22 22 21 19 19 18 18 18 17 18 17 16 16 16 16 16 15 16 16 16 16 15 15 14 14
24 22 21 20 18 18 17 16 16 16 15 16 17 17 19 21 23 23 22 22 21 19 18 18 18 17 17 18 17 16 16 16 16 16 15 15 14 15 16 15 14 13 14
22 21 20 19 18 17 15 14 13 13 13 14 14 15 17 18 19 21 22 21 21 19 18 18 18 17 17 16 16 16 16 16 15 15 16 15 16 15 15 15 14 14 15
21 20 20 18 17 16 14 13 12 11 12 12 12 12 15 18 21 22 23 21 20 19 18 17 17 17 16 16 16 16 16 17 16 15 16 18 19 18 15 14 14 14 13
19 19 19 17 16 15 13 12 10 10 10 10 9 9 11 14 18 20 23 22 20 19 18 17 16 16 16 16 16 16 16 16 16 16 15 17 18 18 19 15 14 14 14
19 18 17 16 15 14 12 11 10 9 8 7 6 7 8 10 14 19 22 22 20 18 17 17 16 16 15 16 17 18 16 17 17 16 16 17 17 17 18 18 16 15 14
18 17 16 15 14 12 11 9 8 7 7 5 5 6 7 8 11 15 19 22 18 16 16 16 16 16 16 17 19 20 16 17 17 16 16 16 17 17 18 18 17 15 13
17 16 15 14 12 11 9 7 6 6 5 4 4 5 6 8 10 14 18 20 19 17 16 16 15 15 15 16 16 16 16 16 16 16 16 16 16 16 16 17 17 15 13
16 15 14 12 11 9 8 6 6 5 4 3 3 4 6 8 12 16 19 19 18 17 16 16 15 16 15 15 15 15 15 16 16 16 16 15 14 15 15 15 15 15 14
15 14 13 12 10 9 8 6 5 4 3 2 2 4 5 7 13 18 19 19 18 18 17 16 15 15 15 15 15 15 15 16 16 16 16 16 15 14 14 14 14 14 14
13 13 13 11 10 8 7 5 4 3 2 1 2 3 4 5 9 16 18 18 18 18 18 17 15 15 15 15 15 15 15 16 16 15 15 15 15 14 14 14 14 13 13
12 12 12 10 9 7 6 5 3 2 1 0 1 2 2 4 5 10 13 17 17 18 17 16 16 16 15 14 15 16 15 15 15 15 14 14 14 14 14 14 13 13 13
11 11 11 10 8 6 5 4 2 0 0 -0 -0 1 1 3 3 5 8 14 15 15 16 16 16 16 15 15 16 17 13 15 15 15 14 14 14 14 14 13 13 14 14
9 8 9 8 6 5 4 4 2 -0 -1 -1 -1 -1 -0 1 2 3 4 6 12 14 14 15 15 15 14 14 14 14 14 14 14 14 14 13 13 13 13 13 13 13 13
7 6 6 6 5 4 3 3 1 0 -2 -2 -2 -1 -1 -0 0 1 2 5 6 10 11 14 15 15 14 14 14 13 13 13 13 13 13 13 13 13 13 13 13 13 12
5 5 4 4 3 2 1 1 1 0 -1 -2 -2 -2 -2 -2 -1 -0 0 3 2 3 4 6 7 9 10 12 13 13 13 13 13 12 12 11 11 12 12 12 12 12 12
3 2 2 2 1 0 1 1 0 -0 -1 -2 -2 -2 -3 -2 -2 -2 -1 -0 -0 2 1 0 1 1 5 9 11 12 11 10 9 8 8 8 8 8 9 9 9 11 12
1 1 0 0 -1 -1 -1 -0 -0 -1 -2 -2 -3 -3 -3 -2 -2 -3 -3 -3 -2 -1 -1 -1 -1 -1 -0 3 8 10 7 6 4 4 4 4 4 5 5 6 6 7 8
-1 -1 -1 -1 -2 -2 -2 -1 -2 -2 -2 -3 -3 -3 -2 -2 -2 -2 -3 -4 -4 -4 -4 -2 -2 -2 -2 -1 0 4 3 1 -0 -0 0 1 0 1 3 4 3 2 1
-2 -1 -2 -3 -2 -3 -2 -2 -2 -3 -3 -3 -3 -3 -3 -2 -2 -3 -3 -3 -4 -4 -5 -5 -4 -4 -3 -3 -2 -1 -1 -2 -3 -3 -3 -3 -1 -0 1 2 1 -1 -2
-2 -2 -2 -2 -2 -2 -2 -2 -3 -3 -3 -3 -3 -3 -3 -3 -3 -2 -2 -2 -2 -3 -4 -4 -5 -5 -5 -5 -4 -3 -3 -4 -4 -4 -5 -4 -4 -4 -2 -1 -1 -4 -3
-2 -1 -2 -2 -1 -1 -1 -1 -2 -2 -3 -3 -3 -3 -4 -3 -3 -3 -3 -2 -2 -2 -2 -3 -3 -4 -5 -6 -6 -6 -5 -5 -5 -5 -5 -5 -5 -5 -6 -5 -6 -5 -4
-2 -1 -1 -1 -1 -2 -1 -1 -0 0 -1 -1 -2 -3 -3 -4 -4 -4 -4 -4 -2 -3 -3 -3 -4 -4 -4 -4 -5 -6 -6 -6 -6 -6 -7 -7 -6 -6 -6 -6 -6 -6 -6
-2 -1 -1 -1 -2 -2 -2 -1 -1 1 0 -1 -1 -1 -2 -3 -5 -5 -5 -5 -5 -4 -4 -5 -4 -5 -5 -6 -5 -5 -5 -5 -5 -5 -5 -5 -6 -6 -6 -6 -6 -6 -7
-4 -3 -3 -3 -3 -3 -3 -3 -2 -1 -0 -1 -1 -1 -2 -2 -3 -5 -6 -6 -7 -6 -6 -6 -7 -6 -7 -7 -6 -6 -5 -5 -5 -4 -4 -4 -5 -5 -5 -6 -5 -6 -6
-5 -5 -5 -5 -5 -5 -6 -5 -4 -3 -2 -2 -2 -3 -2 -2 -2 -3 -5 -7 -6 -7 -7 -7 -7 -7 -8 -7 -7 -7 -6 -5 -4 -4 -4 -5 -5 -5 -5 -6 -6 -6 -6

GFSMW_925_temp_108.txt.gz
Temp
25 23 22 21 20 19 18 16 16 16 15 16 17 17 18 20 21 21 22 23 22 20 19 19 19 19 19 19 18 18 19 18 18 19 18 17 17 17 17 17 16 16 15
24 23 21 20 19 18 16 15 15 14 13 14 14 14 14 15 16 18 20 21 22 22 20 19 19 19 18 18 18 17 17 17 18 17 15 15 15 16 16 16 16 15 14
23 22 21 19 18 17 15 14 13 12 12 12 12 13 13 14 16 17 19 20 22 22 21 19 19 19 18 16 17 17 16 17 16 17 16 14 15 14 16 16 15 15 14
22 21 20 18 18 16 14 13 12 12 11 11 10 10 10 11 12 13 16 20 21 21 21 20 18 18 19 18 17 17 16 17 16 16 16 18 17 15 14 15 15 15 14
20 19 18 17 16 14 13 12 10 10 9 9 8 7 7 8 10 11 13 16 18 21 21 19 18 18 17 17 17 17 16 16 16 16 16 16 17 18 16 14 14 15 14
19 18 17 16 14 13 12 10 8 8 8 7 6 5 5 6 7 8 10 12 16 19 20 20 18 17 17 17 17 18 16 16 17 16 16 16 17 17 16 15 14 14 14
17 17 16 14 13 12 10 8 7 7 7 6 4 4 4 4 5 7 8 10 13 17 18 19 18 17 16 17 17 16 15 16 16 16 16 16 17 17 17 17 15 14 14
16 15 15 13 12 11 9 7 6 6 5 4 4 3 3 4 5 6 8 9 12 15 18 16 19 18 17 16 16 17 16 16 16 17 16 16 16 17 17 17 16 14 13
15 14 14 12 11 10 9 7 5 4 4 3 3 2 3 4 5 6 7 9 11 14 18 17 17 16 17 17 16 14 14 15 16 15 20 16 16 16 17 16 17 15 14
14 14 13 12 10 9 8 6 4 3 2 2 2 2 2 3 4 5 7 11 13 16 18 17 16 16 16 16 15 16 16 16 16 16 15 17 16 16 16 15 15 16 15
13 12 12 11 9 8 6 5 4 2 1 1 1 1 1 2 3 4 5 7 12 17 18 17 16 15 15 15 15 15 15 16 16 17 17 17 15 15 15 15 14 14 14
11 11 11 9 8 7 5 4 3 2 -0 -0 0 1 0 1 2 2 3 5 7 14 17 17 17 15 15 15 15 15 15 15 15 15 15 17 15 15 15 15 14 14 13
10 9 9 7 6 5 4 3 2 1 -0 -1 -1 -1 -1 -0 0 1 2 3 6 10 14 17 18 15 14 15 14 15 15 16 16 17 14 15 15 14 14 14 14 14 13
8 7 6 6 5 4 3 3 2 1 -0 -1 -1 -1 -1 -1 -1 -0 0 1 3 6 9 12 16 16 15 14 14 14 14 14 13 14 15 15 14 14 14 14 14 13 13
6 5 5 4 3 2 2 2 1 -0 -1 -1 -2 -2 -2 -2 -2 -2 -1 -1 1 3 4 5 9 10 13 12 14 14 13 15 14 14 14 14 14 14 14 13 13 13 13
4 4 3 2 1 1 1 1 0 -1 -2 -2 -2 -2 -2 -2 -2 -3 -3 -2 -2 -0 1 1 2 2 4 9 13 14 14 13 13 13 12 12 12 12 12 12 12 12 12
2 2 1 1 -0 -1 -1 -1 -1 -2 -2 -2 -2 -2 -2 -2 -2 -3 -3 -4 -4 -3 -2 -1 0 -0 1 3 7 13 13 12 10 9 8 8 8 9 10 10 10 10 10
1 0 -0 -1 -2 -2 -2 -2 -2 -2 -2 -2 -2 -2 -2 -2 -2 -2 -3 -4 -4 -4 -4 -4 -3 -2 -2 0 0 2 7 6 4 4 4 4 5 6 7 7 6 6 6
-1 -2 -2 -2 -2 -2 -2 -2 -2 -2 -2 -3 -3 -3 -2 -2 -2 -2 -2 -3 -3 -4 -5 -5 -5 -4 -3 -1 -0 -1 -1 -1 -2 -1 -1 1 1 2 3 4 4 2 1
-1 -2 -2 -2 -2 -2 -2 -2 -2 -2 -3 -3 -3 -3 -3 -3 -3 -2 -2 -2 -2 -3 -4 -4 -5 -5 -5 -4 -3 -1 -3 -4 -4 -4 -4 -4 -3 -1 0 2 1 -1 -2
-2 -2 -2 -2 -2 -2 -2 -2 -2 -2 -2 -3 -3 -4 -4 -3 -4 -4 -3 -3 -3 -3 -4 -4 -4 -4 -5 -5 -5 -5 -5 -5 -5 -5 -5 -5 -5 -4 -3 -1 -1 -4 -3
-2 -2 -2 -2 -2 -1 -0 -0 -0 -0 -1 -2 -2 -3 -4 -4 -4 -5 -5 -4 -4 -4 -4 -4 -5 -5 -5 -4 -5 -5 -5 -6 -6 -6 -5 -5 -5 -5 -5 -5 -6 -4 -3
-2 -2 -1 -1 -1 -1 -1 -1 -0 0 -0 -1 -1 -2 -3 -4 -5 -5 -6 -6 -5 -5 -5 -5 -5 -6 -6 -5 -5 -4 -4 -5 -5 -5 -5 -5 -6 -6 -6 -6 -5 -4 -5
-2 -1 -1 -2 -3 -3 -3 -2 -2 -0 -0 -2 -1 -1 -2 -4 -5 -5 -6 -6 -6 -6 -6 -7 -7 -7 -7 -6 -5 -5 -4 -4 -4 -4 -5 -5 -5 -5 -5 -5 -6 -6 -6
-3 -3 -4 -4 -4 -5 -5 -4 -3 -2 -2 -2 -2 -2 -2 -2 -4 -6 -6 -7 -7 -7 -7 -7 -7 -8 -7 -7 -6 -5 -5 -4 -4 -4 -4 -5 -5 -5 -5 -6 -5 -5 -5
-5 -5 -6 -6 -6 -7 -7 -6 -5 -4 -4 -3 -3 -4 -3 -3 -3 -3 -5 -7 -6 -6 -7 -7 -7 -8 -7 -6 -6 -6 -5 -5 -5 -5 -6 -6 -6 -6 -6 -6 -6 -6 -6

GFSMW_925_temp_111.txt.gz
Temp
19 18 18 18 17 16 16 14 14 13 12 12 12 13 13 15 16 17 18 19 18 20 20 20 21 21 20 20 20 20 19 19 19 18 18 17 18 18 18 18 17 17 17
19 17 17 17 15 15 14 13 12 12 11 10 10 10 11 12 13 14 16 17 18 19 18 20 18 18 19 19 19 20 18 17 18 18 16 15 15 16 17 17 17 17 16
18 17 16 14 14 13 12 11 10 10 9 9 9 8 9 9 10 11 13 15 15 16 17 18 19 18 19 19 19 17 18 16 17 18 16 14 14 13 15 16 17 16 16
17 16 14 13 12 11 11 10 9 8 8 7 7 6 6 6 7 7 8 10 13 12 14 15 19 19 18 19 19 18 17 16 15 16 18 17 16 13 14 14 15 16 16
15 14 13 12 11 10 9 8 7 7 7 6 6 5 4 5 5 6 6 7 8 10 11 14 16 19 18 19 18 17 17 15 16 16 16 16 16 16 13 14 14 14 14
14 13 12 11 10 9 8 7 6 6 5 5 4 4 3 4 4 4 5 6 7 8 10 12 15 18 18 18 17 18 15 15 16 16 16 17 16 16 15 13 12 14 14
12 12 11 10 9 8 7 6 5 4 4 4 3 3 2 3 3 4 5 6 7 7 8 11 14 16 18 18 17 17 18 17 15 15 16 16 16 17 17 16 13 12 14
13 11 10 9 8 7 6 5 4 2 2 2 2 2 2 2 3 4 4 5 6 7 8 9 12 15 18 18 16 16 18 17 16 15 16 16 15 16 17 17 14 13 12
12 11 9 8 7 6 5 4 3 2 1 1 1 1 1 2 2 2 3 5 6 7 9 10 11 14 17 18 15 17 16 16 17 16 15 15 16 16 16 17 17 15 14
10 10 9 7 6 5 5 3 2 2 1 -0 -0 0 0 0 1 1 3 3 4 5 8 11 12 14 16 18 16 17 17 14 13 15 16 14 16 15 16 17 16 17 15
9 8 7 6 5 4 3 2 2 1 0 -1 -1 -0 -0 -0 0 1 1 2 3 4 6 11 14 15 16 17 16 16 14 15 14 14 14 14 15 16 14 17 17 16 16
7 6 5 5 4 3 2 2 1 0 -0 -1 -1 -1 -1 -1 -1 -0 0 1 1 3 4 8 12 16 18 18 18 15 14 14 14 15 15 16 16 16 15 16 16 16 15
5 4 4 3 2 2 2 1 0 -0 -1 -1 -1 -1 -1 -1 -1 -1 -1 -1 0 1 2 4 8 12 16 16 15 14 15 15 15 14 16 15 15 16 14 14 15 15 14
5 4 3 2 1 1 1 1 -0 -1 -1 -2 -2 -2 -1 -2 -2 -2 -2 -2 -1 -1 0 2 4 5 9 12 12 14 14 14 14 14 16 16 16 15 14 14 14 14 13
3 3 2 1 0 0 -0 -1 -1 -2 -2 -2 -2 -2 -2 -2 -2 -3 -3 -3 -3 -2 -2 -1 0 2 2 2 6 12 13 14 13 13 14 14 13 13 13 13 13 14 13
2 2 1 0 -0 -1 -1 -2 -2 -2 -2 -2 -2 -2 -2 -2 -2 -2 -3 -4 -4 -4 -4 -3 -2 -1 -1 2 7 10 13 12 13 12 12 11 13 13 13 14 13 13 13
1 0 -0 -1 -2 -2 -2 -2 -2 -2 -2 -3 -2 -2 -2 -2 -2 -2 -3 -3 -4 -4 -4 -4 -4 -3 -2 0 5 2 4 8 9 10 9 8 8 9 10 11 12 12 12
-1 -1 -2 -2 -2 -2 -2 -2 -2 -3 -3 -3 -3 -3 -3 -3 -3 -3 -3 -3 -3 -4 -4 -4 -4 -4 -3 -2 1 0 -1 -2 -0 1 3 4 4 6 7 8 7 7 7
-1 -2 -2 -2 -2 -2 -2 -2 -2 -3 -3 -3 -4 -3 -4 -4 -4 -4 -3 -3 -4 -4 -4 -4 -4 -4 -4 -4 -2 0 -1 -3 -4 -4 -2 -0 1 1 4 5 5 3 2
-2 -2 -2 -3 -2 -2 -2 -2 -2 -2 -3 -3 -4 -4 -4 -5 -5 -5 -4 -4 -4 -4 -5 -5 -5 -5 -4 -4 -5 -4 -4 -4 -4 -4 -4 -4 -3 -1 1 2 1 -1 -2
-2 -2 -3 -3 -3 -3 -3 -2 -2 -2 -2 -3 -3 -3 -4 -5 -5 -5 -5 -5 -5 -5 -5 -6 -6 -5 -5 -4 -4 -5 -5 -5 -5 -5 -5 -4 -4 -4 -3 -1 -1 -3 -3
-2 -3 -3 -4 -4 -3 -2 -2 -2 -1 -2 -2 -2 -3 -4 -5 -5 -6 -6 -6 -6 -6 -7 -7 -6 -6 -6 -5 -4 -4 -4 -4 -5 -5 -5 -5 -5 -5 -5 -5 -5 -3 -3
-3 -3 -3 -4 -4 -4 -4 -3 -3 -1 -2 -3 -3 -3 -3 -4 -5 -6 -7 -7 -7 -7 -7 -7 -7 -7 -7 -6 -5 -4 -4 -4 -4 -5 -5 -5 -5 -5 -6 -6 -5 -5 -5
-4 -4 -4 -5 -6 -6 -6 -5 -4 -3 -3 -4 -4 -4 -4 -5 -5 -6 -7 -7 -7 -7 -8 -8 -7 -7 -6 -6 -6 -5 -5 -4 -5 -5 -5 -5 -5 -5 -5 -5 -6 -6 -6
-5 -6 -6 -7 -7 -7 -7 -6 -6 -5 -5 -4 -5 -5 -5 -5 -5 -6 -6 -7 -7 -7 -7 -7 -7 -7 -6 -6 -6 -6 -6 -6 -6 -6 -6 -6 -6 -6 -6 -6 -6 -5 -5
-7 -7 -8 -9 -9 -8 -7 -6 -6 -6 -5 -5 -5 -5 -5 -5 -5 -5 -5 -7 -7 -7 -7 -7 -7 -7 -6 -6 -6 -6 -7 -7 -7 -7 -8 -8 -7 -7 -7 -7 -7 -6 -6

GFSMW_925_temp_114.txt.gz
Temp
16 14 13 13 12 12 12 12 12 11 12 11 11 11 11 12 14 14 14 15 15 16 17 17 17 19 20 20 20 20 17 17 18 17 17 17 18 18 19 18 18 17 17
15 13 12 11 10 10 10 10 10 10 9 8 8 8 8 10 11 11 13 14 13 14 14 14 15 16 17 18 18 19 19 19 18 18 17 16 15 17 18 18 18 17 18
14 12 11 9 8 8 8 8 8 8 7 7 7 6 7 7 8 10 11 12 12 12 12 13 13 14 15 17 18 18 19 19 17 16 14 14 16 14 15 16 17 18 18
13 11 10 8 7 7 7 7 6 6 6 6 5 4 4 4 4 5 5 7 9 10 10 10 12 13 14 15 17 17 17 18 16 15 16 14 14 13 14 14 15 15 17
10 10 9 8 7 6 6 5 5 5 4 4 4 3 3 3 3 4 4 5 5 6 9 9 9 11 13 15 16 16 16 17 15 15 14 14 14 15 13 13 14 14 15
10 10 8 7 6 5 5 4 3 3 3 2 2 3 2 2 3 3 4 5 5 6 6 7 8 9 11 13 15 16 16 16 16 15 16 16 15 15 13 12 13 15 14
9 8 7 6 5 4 4 4 2 2 1 1 1 2 2 2 2 2 3 3 4 5 6 6 7 8 9 11 13 15 15 14 14 15 15 15 16 17 16 15 12 12 14
8 7 7 6 5 4 3 2 2 2 1 0 0 1 1 1 1 1 2 2 4 4 5 5 7 7 9 10 12 14 15 15 14 15 15 14 16 16 16 16 13 12 13
6 6 5 4 4 3 2 2 1 1 0 -0 -1 -0 0 0 0 1 1 2 2 3 3 4 5 7 9 10 11 14 15 15 15 14 15 15 15 17 17 15 16 15 13
5 5 4 4 3 2 2 1 1 0 -0 -1 -1 -1 -1 -0 -0 -0 0 0 1 2 3 3 4 6 9 11 11 12 14 14 15 16 16 15 15 15 14 15 15 15 14
5 4 3 3 2 2 2 1 -0 -1 -1 -1 -1 -1 -1 -1 -1 -1 -1 -1 -0 0 1 2 3 6 8 12 12 12 14 15 15 13 14 15 15 15 14 14 14 14 15
4 3 2 2 1 1 1 0 -1 -1 -1 -1 -1 -2 -1 -1 -1 -2 -2 -2 -2 -1 -0 1 2 3 6 11 13 13 14 15 14 14 13 13 14 15 15 15 14 13 13
3 2 2 1 1 1 0 -1 -2 -2 -2 -2 -2 -2 -2 -2 -2 -2 -3 -3 -3 -2 -2 -1 0 1 2 5 9 13 15 15 14 14 13 13 13 13 14 14 13 13 13
3 2 1 1 0 -0 -1 -1 -2 -2 -2 -2 -2 -2 -2 -2 -2 -3 -3 -3 -3 -3 -3 -2 -2 -1 0 1 4 10 13 13 14 14 13 13 14 14 14 15 15 13 13
2 1 0 0 -1 -1 -2 -2 -2 -2 -3 -2 -2 -3 -2 -2 -2 -2 -3 -3 -4 -4 -4 -3 -3 -2 -1 -1 1 6 10 14 12 14 14 13 13 14 14 15 13 13 13
1 0 -0 -1 -1 -1 -2 -2 -3 -3 -3 -3 -3 -3 -3 -3 -3 -3 -3 -4 -4 -4 -4 -4 -3 -3 -3 -2 -0 2 7 8 6 11 12 11 13 14 14 14 13 13 13
-0 -1 -1 -2 -2 -2 -2 -3 -3 -3 -3 -4 -4 -3 -4 -4 -4 -3 -3 -4 -4 -5 -5 -5 -4 -3 -3 -3 -1 -1 0 1 0 0 3 6 6 9 11 13 13 13 13
-1 -1 -2 -2 -2 -2 -2 -3 -3 -3 -3 -4 -4 -4 -5 -5 -4 -4 -4 -4 -4 -5 -5 -5 -5 -4 -3 -4 -3 -2 -1 0 -1 -2 -2 -0 2 3 4 6 9 9 9
-3 -3 -2 -3 -3 -3 -2 -2 -3 -3 -3 -4 -4 -5 -5 -6 -6 -6 -6 -5 -6 -6 -5 -6 -5 -5 -4 -4 -4 -4 -4 -3 -2 -2 -3 -3 -2 0 1 3 2 4 4
-2 -3 -3 -4 -4 -4 -3 -2 -2 -3 -3 -4 -4 -4 -5 -6 -6 -6 -7 -6 -6 -7 -7 -6 -6 -6 -5 -4 -4 -4 -4 -4 -4 -4 -4 -3 -4 -4 -1 -0 -1 -2 -1
-3 -4 -4 -5 -5 -4 -4 -3 -3 -3 -3 -3 -4 -4 -5 -6 -6 -7 -7 -7 -7 -7 -7 -7 -6 -6 -6 -5 -4 -4 -4 -5 -5 -5 -4 -5 -5 -4 -4 -4 -4 -4 -4
-4 -4 -5 -5 -5 -5 -4 -4 -4 -3 -3 -4 -4 -5 -5 -6 -6 -7 -7 -7 -7 -7 -7 -7 -7 -6 -6 -6 -5 -5 -5 -5 -5 -5 -5 -5 -5 -5 -5 -5 -5 -4 -5
-5 -4 -5 -6 -6 -6 -6 -6 -5 -4 -4 -4 -5 -5 -5 -6 -6 -7 -7 -7 -7 -7 -7 -7 -7 -6 -6 -6 -6 -6 -6 -6 -6 -6 -6 -5 -5 -5 -5 -5 -5 -5 -5
-5 -6 -6 -7 -7 -7 -6 -6 -5 -5 -5 -5 -5 -5 -5 -5 -6 -7 -7 -7 -7 -7 -7 -7 -7 -7 -6 -7 -7 -7 -7 -6 -6 -7 -6 -6 -6 -6 -6 -5 -5 -5 -6
-7 -7 -8 -8 -8 -7 -6 -6 -6 -6 -5 -5 -5 -5 -5 -5 -6 -6 -6 -7 -8 -7 -7 -7 -8 -7 -7 -7 -7 -7 -8 -8 -8 -7 -8 -8 -8 -8 -7 -7 -6 -6 -6
-8 -8 -9 -9 -9 -8 -7 -6 -6 -6 -6 -6 -6 -6 -6 -6 -6 -6 -6 -7 -8 -8 -8 -7 -7 -8 -8 -8 -8 -8 -8 -8 -9 -9 -9 -9 -9 -9 -9 -8 -8 -7 -7

GFSMW_925_temp_117.txt.gz
Temp
12 11 10 10 9 8 9 9 10 10 13 14 13 12 11 13 13 13 12 12 13 14 14 14 15 15 15 17 17 18 18 18 17 17 17 16 16 16 17 18 18 18 18
11 10 9 8 7 6 6 6 6 6 7 8 8 9 9 9 10 11 12 10 10 11 11 12 13 13 14 15 16 17 16 17 18 19 17 16 16 16 16 16 16 18 18
11 9 8 7 6 5 5 5 5 5 5 6 7 9 10 10 9 9 9 9 9 8 8 9 10 11 12 13 15 15 16 16 17 17 17 14 16 15 17 15 15 16 18
9 8 7 6 5 4 4 4 4 4 4 5 5 4 3 3 3 4 5 6 6 7 7 7 7 8 9 10 12 14 15 16 15 15 16 18 16 14 13 14 16 16 17
8 7 6 5 4 4 3 3 3 3 3 3 3 3 3 3 3 3 3 4 4 6 7 6 7 7 8 9 10 12 14 15 16 15 13 12 14 15 13 13 14 15 15
7 7 5 4 3 3 2 2 2 1 2 2 2 2 2 2 2 2 2 3 3 4 5 5 6 6 7 8 9 10 12 14 15 15 16 15 14 13 13 13 15 15 16
4 4 5 4 3 2 2 2 1 1 0 0 0 1 1 1 1 1 1 2 2 3 3 4 4 5 6 7 8 9 10 13 14 14 14 15 16 17 15 15 15 14 14
3 3 2 3 3 2 1 1 1 0 -0 -1 -0 -0 0 0 1 1 1 1 1 2 2 3 3 4 5 6 7 9 9 11 13 14 14 14 15 16 16 15 15 13 12
2 1 0 1 2 2 1 0 -0 -1 -1 -1 -1 -1 -0 -0 -0 -0 -0 -0 0 1 1 1 2 3 4 5 7 9 10 11 13 13 13 13 14 14 15 15 15 16 14
2 2 1 0 0 1 0 -1 -1 -1 -1 -1 -1 -1 -1 -1 -1 -1 -1 -1 -1 -1 -0 0 1 2 3 4 5 7 10 10 13 13 13 13 13 13 14 14 15 15 16
2 1 0 0 0 0 -0 -1 -2 -2 -2 -1 -1 -1 -1 -2 -2 -2 -2 -3 -2 -2 -1 -1 -0 1 1 2 3 6 10 11 12 13 13 13 14 14 14 14 14 14 15
1 1 0 0 1 0 -1 -2 -2 -2 -2 -2 -2 -2 -2 -2 -2 -2 -3 -3 -3 -3 -2 -2 -1 -1 -0 1 1 3 6 11 12 13 13 13 14 15 15 14 14 14 14
2 2 1 1 -0 -1 -2 -2 -2 -2 -2 -2 -2 -2 -2 -2 -2 -2 -3 -3 -3 -3 -3 -3 -2 -2 -1 -1 -0 1 4 7 12 13 13 15 13 13 14 14 14 13 13
2 1 0 -0 -1 -1 -2 -2 -2 -3 -3 -3 -3 -3 -3 -3 -3 -3 -4 -4 -4 -4 -4 -3 -3 -3 -2 -2 -1 -1 3 6 9 12 13 14 13 13 13 13 13 13 13
1 0 -0 -1 -1 -1 -2 -2 -3 -3 -3 -3 -3 -3 -3 -4 -4 -4 -4 -4 -4 -4 -4 -4 -3 -3 -3 -3 -2 -1 -0 1 4 8 9 10 12 14 13 13 13 13 13
0 -0 -1 -1 -1 -2 -3 -3 -3 -3 -4 -4 -4 -4 -4 -5 -5 -4 -5 -4 -5 -5 -5 -5 -4 -3 -3 -3 -3 -3 -2 -2 -1 0 3 4 5 10 12 13 14 15 13
-1 -1 -1 -2 -2 -2 -2 -3 -3 -4 -4 -4 -5 -5 -5 -5 -5 -5 -5 -6 -6 -6 -6 -6 -5 -4 -3 -3 -4 -4 -3 -3 -3 -2 -0 1 1 2 8 11 12 12 13
-1 -1 -2 -2 -3 -3 -3 -3 -3 -4 -4 -4 -5 -5 -6 -6 -6 -6 -6 -6 -7 -7 -7 -6 -6 -5 -4 -4 -4 -4 -4 -4 -4 -3 -3 -2 -0 0 2 4 6 6 6
-3 -3 -3 -4 -4 -3 -3 -3 -3 -3 -4 -5 -5 -6 -6 -7 -7 -7 -7 -7 -7 -7 -7 -7 -6 -6 -5 -4 -4 -4 -4 -4 -4 -4 -4 -4 -3 -2 1 0 1 1 -1
-3 -4 -4 -4 -4 -4 -4 -4 -4 -4 -4 -5 -5 -6 -6 -7 -7 -7 -7 -7 -7 -7 -7 -7 -6 -6 -6 -5 -5 -5 -5 -5 -5 -5 -5 -5 -4 -4 -3 -1 -1 -3 -2
-4 -4 -5 -5 -5 -5 -4 -4 -4 -5 -5 -5 -5 -5 -6 -7 -7 -7 -7 -7 -7 -7 -7 -7 -7 -7 -7 -7 -6 -6 -6 -6 -6 -5 -5 -5 -5 -5 -5 -5 -4 -5 -3
-5 -5 -6 -6 -6 -5 -5 -5 -5 -5 -5 -5 -5 -6 -6 -7 -7 -7 -7 -8 -7 -7 -7 -7 -7 -7 -7 -7 -7 -7 -7 -7 -7 -7 -7 -6 -6 -6 -5 -5 -5 -5 -4
-5 -5 -6 -6 -6 -6 -6 -6 -5 -5 -5 -5 -5 -5 -6 -6 -7 -8 -8 -8 -7 -7 -7 -8 -8 -8 -8 -8 -8 -8 -7 -7 -8 -8 -8 -7 -7 -7 -6 -6 -6 -6 -6
-6 -6 -7 -7 -7 -7 -6 -6 -5 -5 -5 -5 -6 -6 -6 -6 -7 -8 -8 -8 -8 -8 -7 -8 -9 -9 -9 -8 -8 -8 -9 -8 -8 -8 -8 -9 -8 -8 -8 -7 -7 -7 -6
-7 -7 -7 -8 -8 -7 -7 -6 -6 -5 -6 -6 -6 -6 -7 -7 -7 -8 -8 -8 -8 -8 -8 -9 -10 -9 -10 -9 -8 -9 -9 -9 -10 -10 -10 -10 -10 -9 -9 -9 -8 -8 -8
-8 -8 -9 -9 -9 -7 -7 -6 -6 -6 -6 -7 -7 -7 -8 -8 -8 -8 -9 -9 -9 -9 -9 -9 -9 -10 -10 -10 -10 -10 -10 -11 -11 -12 -12 -12 -11 -11 -11 -10 -10 -9 -9

GFSMW_925_temp_123.txt.gz
Temp
8 7 6 6 5 5 5 4 4 4 5 5 6 8 8 8 7 7 7 9 10 11 11 11 12 13 13 13 14 14 15 16 17 16 16 16 16 16 16 19 19 17 19
8 7 5 4 5 4 4 4 3 3 3 4 4 4 5 6 6 5 5 5 6 6 7 7 8 8 8 10 11 12 13 15 16 16 16 16 15 15 15 15 16 17 19
6 6 5 4 3 3 3 2 2 2 1 2 4 5 5 5 6 5 5 5 4 5 5 6 7 7 7 8 9 9 11 14 15 16 16 15 16 19 18 16 16 15 17
5 5 4 4 3 2 2 2 1 1 1 1 2 3 3 3 3 3 4 4 4 4 4 5 5 6 6 7 7 8 9 10 13 14 16 18 17 17 16 15 16 16 15
5 4 5 4 3 3 2 1 2 1 1 1 1 1 1 2 2 2 3 3 3 3 3 3 3 4 4 5 6 7 8 9 10 12 14 15 16 16 15 17 16 15 16
5 4 3 3 2 1 1 2 1 1 0 1 0 0 0 1 1 1 1 1 2 2 2 2 2 2 3 4 4 5 6 8 9 10 11 13 16 16 16 15 17 17 16
4 3 3 2 2 1 1 0 -0 -0 -0 0 0 -0 -0 0 0 -0 -0 0 0 0 1 1 1 1 2 2 3 4 5 6 7 9 10 11 12 15 16 17 18 19 19
3 2 2 2 1 1 0 -0 -0 0 -0 -0 -0 -1 -0 -1 -1 -1 -1 -1 -1 -1 -0 -0 -0 0 1 2 2 3 4 6 7 8 9 10 11 13 15 15 16 17 19
3 3 2 1 1 0 -0 -1 -1 -1 -1 -1 -1 -1 -1 -1 -1 -1 -1 -1 -1 -1 -1 -1 -1 -0 0 0 1 2 3 3 4 6 7 9 10 11 13 15 15 15 16
3 2 2 1 1 -0 -1 -1 -1 -1 -1 -1 -1 -1 -1 -2 -2 -2 -3 -2 -2 -2 -2 -2 -1 -1 -1 -1 -0 0 1 2 3 4 5 7 10 11 12 14 14 14 15
3 3 2 1 1 -0 -1 -1 -2 -2 -2 -2 -2 -2 -3 -2 -3 -3 -3 -3 -3 -3 -3 -2 -2 -2 -1 -1 -1 -0 1 1 2 4 5 6 9 11 12 13 13 13 14
3 2 2 1 0 -1 -1 -1 -2 -2 -2 -2 -3 -3 -3 -3 -3 -3 -4 -4 -4 -4 -4 -3 -3 -2 -2 -2 -2 -1 -0 0 1 2 2 4 4 8 12 13 13 13 13
3 2 1 1 0 -1 -1 -2 -2 -3 -3 -3 -3 -3 -3 -4 -4 -4 -4 -4 -4 -4 -4 -4 -4 -3 -3 -3 -2 -2 -2 -1 -1 -1 0 1 0 1 2 6 11 13 13
2 2 1 0 -0 -1 -2 -2 -3 -3 -3 -4 -4 -4 -4 -4 -4 -4 -5 -5 -5 -5 -5 -5 -4 -4 -4 -3 -3 -2 -2 -2 -2 -2 -2 -2 -2 -2 -1 1 4 7 12
1 1 1 -0 -1 -2 -2 -3 -3 -3 -3 -4 -4 -5 -5 -5 -5 -5 -5 -5 -6 -5 -5 -5 -5 -5 -4 -4 -4 -3 -3 -3 -3 -3 -3 -3 -3 -3 -1 -0 0 2 5
1 1 0 -1 -1 -1 -2 -3 -3 -3 -4 -4 -5 -5 -5 -6 -6 -6 -6 -6 -6 -6 -6 -6 -6 -5 -5 -4 -5 -4 -4 -4 -4 -4 -4 -4 -4 -3 -2 -1 -1 -0 -1
1 0 -1 -1 -2 -2 -2 -3 -3 -3 -4 -4 -5 -5 -6 -6 -7 -7 -7 -7 -7 -7 -7 -7 -7 -6 -5 -5 -6 -5 -5 -5 -5 -5 -5 -4 -4 -4 -4 -2 -2 -2 -0
0 -1 -2 -2 -3 -3 -3 -3 -3 -4 -4 -5 -6 -6 -7 -7 -7 -7 -8 -8 -7 -8 -8 -8 -7 -7 -6 -6 -6 -6 -6 -6 -6 -6 -5 -5 -5 -5 -5 -5 -4 -4 -4
-1 -2 -3 -4 -4 -4 -4 -4 -4 -5 -5 -6 -6 -7 -7 -8 -8 -8 -8 -8 -8 -8 -8 -9 -9 -8 -8 -6 -6 -7 -7 -7 -7 -7 -7 -6 -6 -5 -5 -5 -5 -5 -5
-3 -4 -5 -5 -4 -4 -4 -5 -5 -5 -6 -6 -6 -7 -7 -8 -8 -8 -8 -8 -8 -9 -9 -9 -10 -9 -9 -8 -7 -8 -8 -8 -8 -8 -8 -7 -7 -6 -6 -6 -6 -5 -5
-4 -5 -5 -5 -5 -5 -4 -5 -6 -6 -6 -6 -6 -7 -7 -8 -8 -8 -8 -8 -9 -9 -9 -9 -10 -10 -10 -9 -8 -9 -9 -9 -8 -9 -9 -9 -8 -8 -7 -8 -8 -7 -7
-5 -5 -5 -6 -5 -5 -5 -6 -6 -6 -6 -6 -7 -7 -8 -8 -8 -9 -9 -9 -9 -9 -9 -9 -10 -10 -10 -10 -10 -10 -10 -11 -10 -10 -10 -10 -10 -10 -9 -9 -9 -9 -8
-5 -5 -5 -5 -5 -5 -5 -5 -5 -5 -6 -6 -7 -7 -8 -8 -8 -8 -8 -8 -9 -9 -9 -9 -10 -10 -10 -11 -11 -11 -11 -12 -12 -12 -12 -12 -11 -11 -11 -11 -11 -11 -10
-5 -5 -5 -5 -6 -6 -6 -6 -6 -5 -6 -6 -7 -7 -7 -8 -8 -8 -8 -8 -8 -9 -9 -10 -10 -10 -10 -11 -11 -11 -12 -13 -13 -13 -13 -13 -13 -13 -13 -13 -12 -12 -12
-6 -6 -6 -6 -7 -7 -7 -7 -6 -6 -6 -7 -7 -7 -8 -8 -9 -9 -9 -9 -9 -9 -9 -10 -10 -10 -11 -11 -12 -12 -12 -13 -14 -14 -14 -14 -14 -14 -14 -14 -14 -13 -13
-7 -7 -7 -7 -7 -7 -8 -7 -7 -7 -7 -7 -8 -8 -9 -9 -9 -9 -10 -11 -10 -10 -10 -10 -10 -11 -11 -12 -12 -13 -13 -14 -14 -14 -15 -15 -15 -15 -15 -15 -15 -15 -15

GFSMW_925_temp_129.txt.gz
Temp
15 14 13 12 12 12 11 11 10 9 8 9 10 12 11 10 11 11 11 11 10 10 10 10 11 11 12 12 13 15 16 17 18 16 17 17 17 18 17 17 15 17 18
17 15 13 13 12 11 11 11 10 9 9 9 9 9 10 11 10 9 10 10 9 8 7 7 7 8 8 9 9 10 11 14 17 18 17 17 18 17 16 16 16 16 18
16 15 13 12 11 10 10 10 9 9 8 8 10 10 11 12 11 11 9 9 8 7 6 6 6 6 7 7 8 8 9 10 12 14 17 17 19 21 17 16 16 16 17
15 14 12 10 9 9 8 8 8 8 7 7 8 8 9 10 10 10 9 8 7 7 5 5 5 5 5 6 6 7 7 7 9 10 14 16 17 16 19 19 16 16 16
13 12 9 9 9 9 8 8 8 7 6 5 5 6 6 6 7 7 7 8 7 6 5 4 4 4 4 4 5 5 5 6 7 8 9 11 14 15 17 18 21 20 17
11 10 9 9 9 8 7 8 8 8 6 5 5 4 4 3 4 3 3 4 5 5 3 3 3 3 3 3 3 4 4 5 6 7 8 9 10 13 15 16 17 19 20
11 10 10 9 8 8 7 6 7 7 5 4 4 3 3 4 4 2 2 1 2 1 1 1 2 2 2 2 2 3 3 4 5 6 6 7 8 9 10 12 14 16 18
10 10 9 9 8 8 5 5 6 5 4 3 3 2 2 2 2 1 1 1 0 0 0 -0 0 0 1 1 1 2 3 3 3 4 5 5 6 6 7 9 11 13 17
10 9 9 8 8 7 4 3 4 4 3 2 2 2 1 1 1 1 0 0 -0 -0 -0 -0 -0 -0 0 1 1 1 2 1 2 2 3 4 5 5 6 6 8 10 12
9 10 10 9 7 5 4 2 2 2 2 2 1 1 1 1 0 0 -0 -0 -0 -1 -1 -1 -0 -0 0 -0 0 0 0 0 -0 0 1 1 0 1 2 3 4 6 11
10 10 10 9 7 5 4 2 2 2 1 1 1 1 1 1 0 -0 -1 -1 -1 -1 -1 -1 -1 -0 -0 -0 -0 -0 -1 -1 -1 -1 -1 -1 -1 -1 0 1 2 3 6
11 12 10 9 7 5 4 3 2 2 1 1 1 1 1 1 1 -0 -1 -1 -2 -2 -2 -1 -1 -1 -1 -1 -1 -1 -1 -1 -2 -2 -2 -2 -2 -2 -2 -1 1 2 3
11 11 10 8 7 4 3 2 2 2 2 3 2 2 2 1 1 1 0 -0 -0 -0 -1 -0 -0 -1 -2 -2 -1 -0 -0 -1 -2 -2 -2 -3 -3 -2 -2 -1 -1 -0 0
11 11 10 8 6 4 3 3 2 2 2 2 2 1 1 1 0 -0 0 -0 -0 -0 -0 0 -0 -1 -2 -4 -2 -1 -1 -1 -2 -2 -2 -3 -3 -3 -3 -2 -3 -2 -2
11 11 9 7 4 3 3 3 3 2 2 2 1 0 0 -0 -1 -1 -1 -1 -1 -1 -2 -1 -1 -2 -3 -5 -4 -2 -1 -2 -2 -3 -2 -3 -4 -4 -3 -3 -3 -4 -3
10 10 9 6 4 3 3 2 3 2 1 1 0 -0 -1 -1 -2 -2 -2 -2 -2 -3 -3 -2 -3 -4 -4 -6 -5 -3 -3 -4 -4 -4 -4 -3 -5 -5 -3 -3 -3 -4 -4
10 9 7 5 4 3 2 2 2 2 1 0 -0 -1 -2 -3 -3 -3 -3 -4 -4 -4 -5 -5 -4 -5 -6 -7 -6 -4 -4 -4 -4 -5 -6 -5 -6 -6 -5 -3 -3 -4 -4
8 6 4 3 2 1 2 2 2 1 0 -1 -2 -3 -3 -3 -4 -4 -5 -5 -5 -5 -6 -6 -6 -6 -7 -7 -7 -5 -4 -5 -5 -6 -7 -7 -7 -7 -7 -5 -5 -5 -5
5 2 2 2 1 -0 -0 1 1 1 -1 -2 -4 -4 -5 -5 -5 -5 -5 -5 -5 -5 -6 -6 -7 -7 -7 -8 -8 -6 -4 -5 -6 -6 -7 -9 -9 -8 -8 -7 -7 -7 -6
1 0 -0 -1 -1 -1 -1 -0 -0 -1 -3 -3 -3 -4 -5 -6 -6 -6 -6 -6 -6 -6 -5 -6 -7 -7 -8 -8 -8 -9 -7 -6 -6 -6 -7 -9 -9 -9 -9 -9 -8 -8 -7
-0 -1 -2 -2 -3 -2 -2 -2 -2 -3 -3 -4 -4 -5 -4 -5 -5 -5 -6 -6 -6 -5 -5 -5 -6 -7 -8 -9 -8 -9 -9 -8 -7 -8 -9 -9 -9 -9 -9 -9 -9 -9 -8
-1 -2 -2 -2 -2 -2 -2 -3 -4 -4 -4 -4 -5 -5 -5 -5 -5 -5 -5 -5 -5 -5 -5 -5 -5 -7 -8 -9 -9 -9 -10 -10 -9 -9 -10 -10 -9 -9 -9 -9 -9 -9 -9
-1 -1 -1 0 1 0 -0 -1 -3 -4 -4 -5 -6 -5 -5 -5 -4 -5 -5 -4 -5 -5 -5 -5 -6 -7 -8 -9 -10 -10 -10 -10 -9 -9 -10 -9 -9 -9 -10 -10 -10 -10 -10
-1 0 1 2 2 1 1 -0 -1 -1 -1 -2 -3 -4 -4 -4 -4 -4 -5 -6 -6 -6 -6 -6 -7 -8 -9 -10 -10 -10 -10 -10 -10 -9 -9 -9 -9 -9 -10 -10 -10 -10 -11
0 1 1 1 1 1 0 -0 -0 -0 -1 -2 -2 -3 -3 -4 -6 -8 -7 -7 -9 -9 -8 -8 -8 -9 -10 -11 -11 -11 -10 -10 -10 -9 -9 -9 -9 -9 -10 -10 -10 -10 -11
1 1 1 0 0 -0 -1 -1 -1 -1 -1 -2 -2 -3 -3 -4 -3 -4 -8 -9 -10 -10 -10 -11 -10 -10 -11 -11 -11 -10 -10 -10 -9 -8 -9 -9 -9 -9 -9 -10 -10 -10 -11

GFSMW_925_temp_132.txt.gz
Temp
17 16 14 13 13 12 12 11 11 10 10 11 10 11 11 12 10 10 10 9 9 8 8 7 8 8 9 9 9 10 10 12 13 14 16 17 17 18 18 19 18 17 17
18 16 14 13 12 11 11 11 10 10 9 9 10 11 11 12 11 10 9 9 8 7 7 6 6 6 7 7 7 8 8 9 10 11 13 15 17 19 18 18 18 17 18
17 16 14 11 11 10 9 9 9 9 7 7 8 9 11 11 10 10 9 9 8 7 6 5 5 5 5 6 6 6 6 7 8 9 11 13 14 14 17 17 17 17 16
16 15 13 11 11 10 9 9 9 8 7 6 6 7 7 8 7 7 7 8 7 6 5 4 4 4 4 5 5 5 5 6 7 8 10 9 10 13 14 17 16 18 17
15 13 11 11 10 9 9 9 9 8 7 6 5 5 5 5 5 4 5 4 4 4 3 3 3 3 3 3 4 4 4 5 5 6 7 8 10 10 12 13 15 14 16
13 12 11 11 10 9 8 8 8 7 6 5 5 4 4 4 4 4 3 2 2 2 1 1 1 2 2 2 2 3 3 4 5 5 6 7 8 9 10 11 11 12 13
12 12 12 11 10 9 7 7 7 6 5 4 3 3 3 3 3 2 2 1 1 1 0 0 0 1 1 1 2 2 3 3 3 3 4 4 5 6 7 8 10 11 12
12 12 11 11 10 8 6 6 6 5 4 3 3 2 2 2 1 1 1 1 0 0 -0 0 0 0 0 0 1 1 1 1 1 2 2 2 3 4 5 6 7 8 9
11 11 10 10 9 7 5 4 4 4 3 2 2 2 1 1 1 0 0 -0 -0 -0 -1 -0 -0 -0 0 0 0 0 -0 -0 -0 -0 0 0 0 1 2 2 3 5 7
11 11 11 10 8 6 4 3 3 3 2 2 2 1 1 1 1 0 -0 -0 -1 -1 -1 -1 -1 -1 -1 -0 -0 -0 -1 -1 -1 -1 -1 -2 -1 -1 -0 0 1 2 4
11 11 11 10 8 6 4 3 3 2 2 2 1 1 1 1 1 -0 -0 -1 -1 -1 -0 -0 -1 -2 -2 -1 -1 -1 -1 -1 -1 -2 -2 -2 -2 -2 -2 -1 0 1 2
12 12 11 10 8 6 5 3 3 3 2 2 2 2 2 2 2 1 1 0 0 -0 0 0 -1 -2 -2 -2 -2 -1 -1 -1 -1 -2 -2 -3 -3 -2 -2 -2 -2 -1 -0
12 12 12 10 8 6 5 3 3 3 3 3 3 2 2 2 1 1 1 0 -0 -0 -0 -1 -1 -3 -3 -3 -2 -1 -1 -2 -2 -2 -3 -4 -4 -3 -2 -2 -3 -3 -2
12 12 12 10 7 6 4 3 3 3 3 3 2 2 1 1 0 0 -0 -1 -1 -1 -1 -2 -3 -4 -5 -4 -4 -2 -2 -2 -3 -3 -3 -4 -5 -4 -3 -3 -3 -3 -2
12 12 12 9 6 5 4 4 3 3 3 2 1 1 1 -0 -1 -1 -1 -2 -2 -3 -2 -3 -4 -5 -6 -6 -5 -2 -3 -3 -4 -5 -4 -5 -6 -5 -4 -3 -4 -4 -4
13 12 11 8 6 5 4 4 4 3 2 2 1 0 -1 -1 -2 -2 -3 -3 -4 -5 -5 -4 -5 -7 -6 -6 -5 -3 -4 -5 -6 -7 -7 -6 -7 -7 -5 -5 -5 -5 -5
12 11 10 8 6 5 4 3 3 3 2 1 -0 -1 -2 -3 -4 -4 -4 -5 -5 -6 -6 -6 -6 -7 -7 -7 -6 -4 -5 -6 -7 -8 -9 -8 -8 -8 -7 -7 -7 -6 -5
11 10 7 5 4 3 3 3 3 2 0 -1 -2 -2 -3 -3 -4 -5 -5 -5 -5 -6 -6 -7 -7 -8 -7 -7 -7 -6 -6 -6 -7 -8 -9 -9 -9 -8 -8 -9 -8 -8 -7
8 5 4 1 0 1 2 3 2 1 -1 -3 -4 -4 -5 -5 -5 -5 -5 -5 -5 -5 -6 -7 -7 -8 -8 -8 -8 -7 -7 -7 -7 -8 -9 -9 -8 -8 -8 -9 -9 -9 -8
3 1 1 -0 -0 -1 1 2 1 -0 -1 -3 -4 -5 -5 -5 -5 -5 -5 -5 -5 -5 -5 -7 -7 -8 -9 -8 -8 -9 -9 -8 -9 -9 -9 -9 -8 -8 -8 -9 -10 -10 -9
0 -0 -1 -1 -1 -1 0 -0 -2 -3 -3 -3 -3 -4 -5 -5 -5 -5 -5 -5 -5 -5 -5 -6 -8 -8 -9 -9 -8 -9 -9 -9 -9 -9 -9 -9 -8 -8 -8 -9 -9 -10 -10
-0 -1 -2 -2 -2 -2 -2 -3 -3 -3 -3 -4 -5 -5 -4 -5 -5 -5 -5 -5 -5 -5 -5 -6 -7 -9 -10 -9 -9 -9 -9 -9 -9 -9 -9 -9 -9 -9 -9 -9 -10 -10 -11
-1 -2 -2 -2 -1 -1 -1 -3 -3 -4 -4 -5 -5 -5 -5 -4 -5 -5 -5 -5 -5 -5 -6 -7 -8 -9 -10 -10 -10 -10 -9 -10 -9 -9 -9 -9 -9 -10 -10 -10 -10 -11 -11
-1 -1 -0 1 1 0 -0 -2 -2 -3 -4 -4 -4 -4 -4 -4 -4 -6 -7 -8 -8 -7 -8 -8 -9 -10 -10 -10 -10 -10 -10 -9 -9 -9 -9 -9 -9 -9 -10 -10 -11 -11 -12
-0 0 1 2 2 2 1 -0 -1 -1 -1 -2 -3 -4 -5 -6 -7 -7 -8 -9 -9 -9 -10 -10 -10 -10 -11 -10 -10 -9 -9 -9 -9 -9 -9 -10 -10 -10 -10 -11 -11 -11 -12
0 1 2 2 2 1 1 1 1 -0 -1 -2 -2 -2 -3 -5 -6 -8 -9 -9 -9 -10 -10 -10 -10 -11 -10 -10 -10 -10 -9 -9 -9 -9 -10 -10 -11 -11 -11 -12 -12 -12 -12

GFSMW_925_temp_135.txt.gz
Temp
13 14 13 12 11 11 10 9 9 9 9 9 9 10 11 11 10 9 9 8 8 7 7 6 6 7 7 7 7 7 7 9 9 11 12 16 18 18 18 17 17 18 17
13 13 11 11 10 10 9 9 8 8 7 7 8 8 9 9 8 8 8 7 7 6 6 5 5 5 5 6 6 6 6 7 7 9 9 11 14 15 16 16 16 17 18
13 12 10 10 10 9 9 9 8 7 6 6 7 8 9 8 7 6 6 5 4 4 4 4 4 4 4 4 4 5 5 6 7 7 8 10 10 10 14 15 15 15 15
12 11 10 10 9 9 9 9 8 6 6 5 5 5 5 5 4 4 4 4 3 3 3 2 3 3 3 3 3 4 4 5 6 7 8 8 8 10 10 13 13 14 13
10 9 9 10 9 9 8 8 7 6 5 4 4 4 4 4 3 3 2 2 2 1 1 1 1 1 2 2 2 2 3 4 4 5 6 7 8 9 9 11 10 11 12
10 9 10 9 9 8 8 8 6 5 4 3 3 3 3 3 2 2 1 1 1 1 1 0 1 1 1 1 1 2 2 3 3 3 4 5 6 7 8 9 9 9 10
9 9 8 9 7 7 7 7 5 4 3 3 2 2 2 2 1 1 1 0 0 -0 -0 0 0 0 1 1 1 1 1 1 1 2 2 2 4 4 5 6 7 8 8
9 9 9 9 6 6 5 5 4 3 3 3 2 2 1 1 1 1 0 -0 -0 -0 -0 -0 -0 -0 -0 0 0 0 0 -0 0 0 0 0 1 1 2 3 4 5 7
9 8 8 8 5 5 4 4 3 3 2 2 2 1 1 1 0 0 -0 -1 -1 -0 -0 -1 -1 -1 -1 -1 -0 -1 -1 -1 -1 -1 -1 -1 -1 -1 -0 0 1 3 5
8 8 8 7 5 4 3 3 3 2 2 2 2 1 1 1 0 -0 -0 -0 -0 -0 -0 -1 -2 -2 -1 -1 -1 -1 -1 -1 -1 -2 -2 -2 -2 -2 -1 -1 -0 1 2
8 8 8 6 5 4 3 3 2 2 2 1 2 2 1 1 1 0 0 0 0 0 -0 -2 -2 -2 -2 -2 -1 -1 -2 -2 -2 -3 -3 -3 -3 -2 -2 -2 -2 -1 -1
9 8 8 6 5 4 3 3 2 2 2 2 2 2 2 1 1 0 0 -0 -0 -1 -2 -3 -3 -3 -3 -2 -2 -2 -2 -3 -3 -4 -5 -5 -4 -3 -2 -2 -3 -2 -2
9 8 7 6 5 4 3 3 3 3 3 3 2 2 1 1 0 -0 -1 -1 -1 -2 -3 -4 -5 -4 -4 -3 -3 -3 -4 -4 -5 -4 -6 -6 -5 -4 -3 -3 -4 -3 -3
10 10 8 6 5 4 3 3 3 3 3 2 1 1 0 -0 -1 -1 -2 -2 -3 -3 -5 -5 -6 -6 -5 -4 -3 -4 -5 -5 -6 -7 -7 -7 -6 -5 -5 -4 -4 -4 -4
11 10 7 5 4 4 3 3 3 3 2 2 1 -0 -1 -1 -2 -2 -3 -3 -4 -5 -6 -6 -7 -7 -6 -5 -4 -5 -6 -7 -8 -8 -8 -8 -7 -7 -6 -6 -6 -5 -5
11 11 8 5 5 4 3 3 3 3 2 1 -1 -1 -2 -2 -3 -4 -4 -5 -5 -6 -6 -7 -8 -7 -7 -6 -5 -6 -7 -8 -9 -9 -9 -8 -8 -8 -8 -7 -7 -7 -6
11 10 6 5 4 4 4 4 3 2 1 -0 -2 -2 -3 -4 -4 -4 -5 -6 -6 -6 -7 -7 -8 -7 -7 -7 -6 -6 -7 -8 -9 -9 -9 -8 -8 -8 -9 -9 -8 -8 -7
11 9 6 4 4 4 4 3 2 1 -0 -2 -3 -3 -4 -5 -5 -5 -5 -6 -6 -7 -7 -8 -8 -8 -7 -8 -7 -8 -8 -9 -9 -9 -8 -8 -8 -8 -10 -10 -9 -9 -9
7 5 4 3 3 3 3 2 1 -1 -2 -3 -4 -4 -5 -5 -5 -5 -5 -6 -6 -7 -8 -8 -8 -8 -8 -8 -9 -8 -9 -9 -9 -9 -8 -8 -8 -8 -9 -11 -11 -11 -10
3 1 1 1 1 2 2 1 -1 -2 -3 -4 -5 -5 -5 -5 -5 -5 -5 -5 -6 -7 -8 -9 -9 -9 -8 -8 -8 -9 -9 -9 -9 -9 -9 -8 -8 -8 -9 -11 -11 -12 -11
1 0 0 -0 -0 1 0 -2 -2 -3 -3 -4 -5 -5 -5 -5 -5 -5 -5 -5 -5 -7 -8 -9 -10 -10 -9 -9 -8 -9 -9 -9 -9 -9 -9 -9 -9 -9 -9 -10 -11 -11 -12
-0 -1 -1 -1 -1 -1 -1 -2 -3 -3 -3 -4 -5 -5 -5 -5 -5 -5 -5 -5 -5 -7 -9 -9 -10 -10 -10 -10 -9 -9 -9 -9 -9 -9 -9 -9 -9 -10 -10 -11 -11 -12 -12
-1 -1 -1 -2 -2 -3 -2 -3 -3 -4 -4 -5 -5 -5 -5 -5 -5 -5 -5 -6 -6 -7 -9 -10 -10 -10 -10 -10 -10 -9 -9 -9 -9 -9 -10 -10 -10 -11 -11 -11 -12 -13 -13
-1 -1 -2 -2 -2 -2 -2 -3 -4 -4 -5 -5 -5 -4 -5 -6 -6 -6 -7 -7 -8 -9 -9 -10 -11 -10 -10 -10 -9 -9 -9 -9 -9 -10 -11 -11 -11 -12 -12 -13 -13 -13 -13
-1 -1 -1 -1 -1 -1 -2 -3 -4 -4 -4 -5 -5 -5 -5 -6 -7 -7 -7 -8 -9 -9 -10 -10 -10 -10 -10 -9 -9 -9 -9 -9 -10 -11 -12 -12 -13 -13 -14 -14 -14 -14 -14
-1 -1 -0 -0 -0 -1 -2 -2 -3 -3 -3 -4 -4 -4 -5 -6 -7 -9 -10 -9 -9 -10 -10 -10 -10 -10 -10 -10 -9 -9 -10 -11 -11 -12 -13 -13 -14 -14 -15 -15 -15 -15 -15

GFSMW_925_temp_141.txt.gz
Temp
10 9 9 9 9 8 9 9 9 9 10 9 8 8 6 6 6 6 5 6 5 5 5 5 5 5 4 4 4 5 5 6 7 8 10 13 14 14 14 14 14 14 14
9 8 8 9 9 8 8 7 7 8 9 9 8 7 6 5 4 4 4 4 4 4 4 3 3 3 3 3 3 3 3 5 5 6 7 8 11 13 13 13 13 12 12
9 8 7 8 8 7 7 7 7 7 7 7 7 6 5 4 3 3 3 2 2 2 2 2 2 2 2 2 3 3 3 3 5 5 6 7 7 8 11 12 11 11 10
9 9 7 6 7 7 7 6 6 6 6 6 6 6 4 3 2 2 2 2 1 1 1 1 1 1 2 2 2 2 2 3 4 5 5 6 6 8 7 10 10 10 9
9 8 7 7 7 6 6 6 5 5 4 5 4 4 2 2 1 1 1 1 1 1 1 1 1 1 1 1 1 1 2 2 2 3 3 4 5 7 7 8 7 8 8
9 8 7 6 6 5 5 5 5 4 3 3 3 3 2 1 1 1 0 0 0 0 0 0 1 1 0 0 0 1 0 0 1 1 1 2 3 4 5 6 6 6 7
8 7 5 5 4 4 4 4 4 3 3 2 2 2 1 1 1 0 0 -0 -0 -1 -0 -0 -0 0 0 -0 -0 -0 -1 -1 -1 -1 -1 -0 0 0 1 2 3 4 4
8 6 5 5 4 4 4 4 3 2 2 2 1 1 1 0 0 -0 -0 -0 -1 -1 -1 -1 -1 -1 -0 -1 -1 -1 -1 -2 -2 -3 -2 -2 -2 -1 -1 -0 1 2 4
7 6 5 4 4 3 4 4 3 2 2 1 1 1 1 1 0 0 -0 -0 -1 -1 -1 -1 -1 -1 -1 -1 -2 -2 -2 -2 -4 -4 -3 -3 -2 -2 -2 -2 -1 0 3
7 6 5 4 3 4 4 3 3 2 2 1 1 1 1 0 0 -0 -1 -1 -1 -1 -1 -2 -2 -2 -2 -2 -2 -3 -4 -4 -5 -5 -4 -4 -3 -3 -3 -3 -2 -2 -1
7 6 5 3 3 3 3 3 2 2 2 2 1 1 0 -0 -0 -0 -1 -1 -1 -2 -2 -3 -2 -2 -3 -3 -3 -4 -4 -5 -5 -6 -5 -5 -4 -4 -4 -4 -4 -3 -2
6 5 4 3 2 2 2 2 2 2 2 2 1 1 0 -0 -1 -1 -2 -2 -2 -3 -3 -3 -3 -3 -4 -4 -4 -5 -6 -6 -6 -7 -7 -6 -6 -5 -5 -5 -5 -4 -3
5 4 3 3 2 1 2 2 2 2 2 1 1 0 -0 -1 -1 -2 -2 -3 -3 -3 -4 -4 -4 -4 -5 -5 -5 -6 -7 -7 -7 -7 -7 -7 -7 -7 -6 -6 -6 -5 -4
6 5 4 3 2 2 1 2 2 2 1 1 1 -0 -1 -1 -2 -3 -3 -3 -4 -4 -5 -5 -5 -5 -5 -6 -6 -7 -7 -8 -8 -7 -8 -8 -7 -7 -7 -7 -7 -6 -6
7 6 4 4 3 2 2 2 2 2 1 1 -0 -1 -2 -2 -3 -3 -4 -5 -5 -6 -6 -6 -6 -5 -6 -7 -7 -8 -8 -8 -8 -8 -8 -8 -8 -8 -8 -8 -8 -8 -8
8 7 6 4 3 3 2 2 1 1 1 0 -1 -2 -2 -3 -4 -4 -5 -5 -6 -6 -6 -6 -6 -6 -6 -7 -8 -8 -8 -9 -9 -8 -8 -9 -9 -9 -9 -9 -9 -9 -10
9 8 6 5 3 3 2 2 1 0 0 -1 -2 -2 -3 -4 -5 -5 -6 -6 -7 -7 -7 -7 -7 -7 -7 -8 -9 -8 -8 -8 -9 -9 -9 -9 -10 -10 -10 -11 -12 -11 -10
10 9 7 5 4 3 2 1 -0 -1 -1 -2 -2 -3 -4 -4 -5 -6 -6 -7 -7 -7 -8 -8 -8 -8 -8 -8 -9 -9 -9 -9 -9 -9 -9 -10 -10 -11 -11 -12 -12 -13 -13
10 8 8 4 3 2 1 -0 -1 -1 -2 -3 -3 -4 -4 -5 -6 -7 -7 -8 -8 -8 -8 -8 -8 -8 -8 -9 -9 -9 -9 -9 -9 -9 -9 -9 -10 -11 -12 -12 -13 -13 -13
8 5 4 3 2 1 0 -1 -2 -3 -3 -3 -3 -4 -4 -5 -6 -7 -8 -8 -8 -8 -8 -8 -8 -8 -8 -9 -9 -9 -9 -10 -10 -10 -10 -9 -10 -10 -12 -13 -14 -14 -15
3 3 2 1 0 -0 -0 -2 -3 -3 -3 -3 -4 -4 -5 -5 -6 -7 -8 -8 -9 -9 -9 -9 -9 -8 -8 -8 -9 -10 -10 -10 -10 -11 -11 -11 -10 -11 -12 -13 -14 -15 -14
1 1 1 -0 -0 -1 -1 -3 -3 -3 -3 -3 -4 -5 -5 -6 -7 -7 -8 -9 -9 -9 -10 -10 -9 -9 -9 -9 -8 -9 -10 -10 -11 -12 -12 -12 -13 -12 -13 -14 -14 -15 -14
0 1 -0 -0 -1 -1 -2 -3 -5 -4 -4 -4 -5 -5 -6 -6 -6 -7 -8 -9 -9 -9 -10 -10 -10 -9 -9 -9 -9 -10 -10 -11 -11 -12 -13 -14 -14 -14 -14 -15 -16 -15 -15
-0 -0 -0 -1 -1 -2 -2 -3 -4 -5 -5 -5 -6 -6 -6 -6 -6 -7 -8 -8 -9 -10 -10 -10 -10 -9 -9 -9 -9 -10 -11 -11 -12 -12 -13 -14 -14 -14 -14 -14 -15 -16 -17
-0 -0 -0 -1 -2 -3 -4 -3 -4 -5 -5 -6 -6 -6 -6 -6 -7 -7 -7 -8 -8 -8 -10 -10 -10 -9 -10 -10 -10 -11 -12 -12 -13 -13 -13 -13 -14 -14 -15 -16 -17 -17 -17
-1 -1 -2 -2 -3 -4 -4 -4 -5 -5 -5 -6 -7 -7 -7 -8 -7 -8 -9 -9 -9 -10 -10 -10 -10 -9 -9 -9 -10 -11 -12 -14 -13 -13 -15 -16 -17 -17 -17 -18 -18 -18 -18